Regional Weather Roundup
Issued by NWS

Home | Current Version | Previous Version | Graphics & Text | Print | Product List | Glossary On
Versions: 1 2 3 4 5 6 7 8 9 10 11 12 13 14 15 16 17 18 19 20 21 22 23 24 25 26 27 28 29 30 31 32 33 34 35 36 37 38 39 40 41 42 43 44 45 46 47 48 49 50
000
ASUS43 KLOT 311408
RWRIL

ILLINOIS REGIONAL WEATHER ROUNDUP
NATIONAL WEATHER SERVICE CHICAGO/ROMEOVILLE IL
900 AM CDT TUE MAY 31 2016

NOTE: "FAIR" INDICATES FEW OR NO CLOUDS BELOW 12,000 FEET WITH NO
SIGNIFICANT WEATHER AND/OR OBSTRUCTIONS TO VISIBILITY.

* THESE STATIONS ARE NOT UNDER NWS QUALITY CONTROL. THEY ALSO MAY NOT
  REPORT WEATHER SUCH AS PRECIPITATION OR FOG.

ILZ001-002-007-009-015-016-024-311500-
NORTHWEST ILLINOIS

CITY           SKY/WX    TMP DP  RH WIND       PRES   REMARKS
MOLINE         CLOUDY    74  65  73 SW7       29.96S
STERLING*      SUNNY     77  62  59 E10       29.96
SAVANNA*       CLOUDY    71  61  69 E3        29.95F
$$

ILZ003-004-008-010-011-017-018-311500-
NORTH CENTRAL ILLINOIS

CITY           SKY/WX    TMP DP  RH WIND       PRES   REMARKS
ROCKFORD       CLOUDY    74  60  61 E7        30.01S
FREEPORT*      CLOUDY    69  61  75 SE12      29.99F
ROCHELLE*      CLOUDY    73  60  63 SE16      29.99F
DE KALB*       CLOUDY    72  60  67 SE9       30.01S
$$

ILZ005-006-012>014-019>023-311500-
NORTHEAST ILLINOIS

CITY           SKY/WX    TMP DP  RH WIND       PRES   REMARKS
CHICAGO-OHARE  PTSUNNY   76  55  48 E10       30.01R
CHICAGO-MIDWAY CLOUDY    75  57  53 SE6       30.00S
AURORA         CLOUDY    75  60  59 E10       30.00F
LANSING*       CLOUDY    74  59  58 SE6       30.01S
JOLIET*        CLOUDY    77  60  55 SE8       30.00S
WAUKEGAN       MOSUNNY   70  54  56 E7        30.02S
DUPAGE AIRPORT CLOUDY    75  57  53 E8        30.00S
KANKAKEE*      CLOUDY    75  57  53 SE7       30.01S
WHEELING       MOSUNNY   73  53  49 E7        30.02S
MORRIS*        CLOUDY    74  57  55 SE12      29.98S
ROMEOVILLE*    CLOUDY    75  57  52 SE7       30.00F
$$

LMZ740>746-311500-
SOUTHERN LAKE MICHIGAN

STATION/POSITION SKY/WX   TEMP    WIND        PRES    VSBY  WAVE
                          AIR SEA DIR/SP/G                  HT/PER
                          (F)     (DEG/KT/KT) (MB)    (MI)  (FT/S)
SOUTHERN BUOY              57 55   60/ 10/ 12 1016.8F         0
WILMETTE HARBOR            63 59   CALM  /  2   N/A           1
HARRISON CRIB              65     100/  8/  8   N/A
BURNHAM HARBOR             67      40/  3/  4   N/A
CALUMET HARBOR             66     100/  5/  7 1015.5R
BURNS HARBOR               72     100/  7/ 14 1016.6S
MICHIGAN CITY              70      90/  9/ 10   N/A
MICHIGAN CITY 6N           67 61   70/  6/  8   N/A           0
ST. JOSEPH                 69 65   90/  4/  6   N/A           1
$$

ILZ025>027-034>036-040-047-049-050-058-095>099-311500-
WEST-CENTRAL ILLINOIS

CITY           SKY/WX    TMP DP  RH WIND       PRES   REMARKS
QUINCY         CLOUDY    70  63  78 CALM      29.98F
GALESBURG*     CLOUDY    71  62  71 SW7       29.99S
MACOMB*        CLOUDY    69  62  78 SW5       30.01S
JACKSONVILLE*  CLOUDY    69  63  81 W5        29.98F
PITTSFIELD*    CLOUDY    70  64  82 CALM      30.00F
$$

ILZ028>032-037-038-041>044-048-051>054-059>061-311500-
CENTRAL ILLINOIS

CITY           SKY/WX    TMP DP  RH WIND       PRES   REMARKS
PONTIAC        CLOUDY    76  64  67 S3        29.99F
BLOOMINGTON    CLOUDY    74  65  73 S6        30.00S
DECATUR        CLOUDY    76  64  66 E6        29.99S
PEORIA         CLOUDY    74  65  73 SW7       29.98S
LACON*         TSTM      69  53  55 SE6       29.96F
LINCOLN*       CLOUDY    76  65  70 E5        29.98F
SPRINGFIELD    CLOUDY    76  64  66 W3        29.98F
TAYLORVILLE    CLOUDY    77  62  58 E8        29.98S
$$

ILZ033-039-045-046-055>057-062-063-311500-
EAST-CENTRAL ILLINOIS

CITY           SKY/WX    TMP DP  RH WIND       PRES   REMARKS
CHAMPAIGN      CLOUDY    75  61  61 SE6       30.00S
RANTOUL*       CLOUDY    76  61  59 S5        29.99S
MATTOON          N/A     74  61  63 E3        29.99S
PARIS*         CLOUDY    75  64  68 CALM      30.01S
$$

ILZ079-100>102-311500-
SOUTHWEST ILLINOIS

CITY           SKY/WX    TMP DP  RH WIND       PRES   REMARKS
ALTON          CLOUDY    66  64  94 NE8       30.01S
BELLEVILLE     CLOUDY    74  66  75 W7        29.98S
CAHOKIA*       LGT RAIN  71  64  78 N6        29.99S
SPARTA*        CLOUDY    74  64  71 NW6       30.00S
$$

ILZ064>066-069>071-074>076-080>082-084>086-088>090-092>094-311500-
SOUTH-CENTRAL ILLINOIS

CITY           SKY/WX    TMP DP  RH WIND       PRES   REMARKS
CARBONDALE     CLOUDY    77  65  66 SE5       29.98S
CAIRO*         CLOUDY    78  65  65 E3        29.98S
EFFINGHAM*     CLOUDY    76  67  73 NE6       30.00S
MT. VERNON     CLOUDY    77  66  69 E3        29.98S
CENTRALIA*     CLOUDY    78  68  70 E5        29.97S HX  81
SALEM*         CLOUDY    79  64  60 E6        29.97F HX  80
METROPOLIS*    CLOUDY    73  68  83 CALM      29.99R
$$

ILZ067-068-072-073-078-083-087-091-311500-
SOUTHEAST ILLINOIS

CITY           SKY/WX    TMP DP  RH WIND       PRES   REMARKS
LAWRENCEVILLE  MOSUNNY   78  62  57 SE5       29.99F HX  80
FLORA*         MOSUNNY   78  65  64 SE6       29.99S HX  80
FAIRFIELD*     CLOUDY    79  66  64 E5        29.97S HX  81
HARRISBURG*    CLOUDY    77  67  70 E7        29.99R
ROBINSON*      MOSUNNY   74  65  74 CALM      30.01R
CARMI*         SUNNY     79  66  64 E3        29.98S HX  81
$$

ABBREVIATIONS USED IN REMARKS
   TC - TEMPERATURE IN CELSIUS
  WCI - WIND CHILL INDEX
   HX - HEAT INDEX
  VSB - VISIBILITY
$$





USA.gov is the U.S. government's official web portal to all federal, state and local government web resources and services.